| time (UTC) | temp F | wind direction | speed knots | gust knots | rain 1hr in | rain 24hr in | rain mn in | humidity % | barometer mb |
| 20260902121607 | 88 | 183 | 2.6 | 6.1 | 0.00 | 0.00 | 0.00 | 67 | 1020.4 |
| 20260902114608 | 86 | 229 | 5.2 | 9.6 | 0.00 | 0.00 | 0.00 | 67 | 1020.6 |
| 20260902113101 | 86 | 231 | 3.5 | 7.0 | 0.00 | 0.00 | 0.00 | 67 | 1020.6 |
| 20260902111602 | 86 | 231 | 3.5 | 6.1 | 0.00 | 0.00 | 0.00 | 66 | 1020.7 |
| 20260902110059 | 85 | 231 | 3.5 | 7.0 | 0.00 | 0.00 | 0.00 | 66 | 1020.6 |
| 20260902104603 | 85 | 231 | 1.7 | 7.0 | 0.00 | 0.00 | 0.00 | 66 | 1020.8 |
| 20260902103118 | 85 | 251 | 2.6 | 7.0 | 0.00 | 0.00 | 0.00 | 66 | 1020.8 |
| 20260902101555 | 85 | 251 | 1.7 | 7.0 | 0.00 | 0.00 | 0.00 | 66 | 1020.8 |
| 20260902100054 | 83 | 251 | 2.6 | 4.3 | 0.00 | 0.00 | 0.00 | 66 | 1020.6 |
| 20260902094551 | 83 | 251 | 0.0 | 3.5 | 0.00 | 0.00 | 0.00 | 66 | 1020.7 |
| 20260902093108 | 83 | 251 | 0.0 | 1.7 | 0.00 | 0.00 | 0.00 | 66 | 1020.6 |
| 20260902091555 | 81 | 261 | 0.9 | 3.5 | 0.00 | 0.00 | 0.00 | 65 | 1020.6 |
| 20260902084556 | 80 | 0 | 0.9 | 5.2 | 0.00 | 0.00 | 0.00 | 65 | 1020.4 |
| 20260902083052 | 79 | 261 | 3.5 | 7.8 | 0.00 | 0.00 | 0.00 | 65 | 1020.3 |
| 20260902081559 | 79 | 120 | 2.6 | 7.0 | 0.00 | 0.00 | 0.00 | 65 | 1020.3 |
| 20260902080059 | 78 | 120 | 3.5 | 5.2 | 0.00 | 0.00 | 0.00 | 65 | 1020.3 |
| 20260902074611 | 77 | 120 | 1.7 | 5.2 | 0.00 | 0.00 | 0.00 | 64 | 1020.5 |
| 20260902073053 | 75 | 120 | 1.7 | 4.3 | 0.00 | 0.00 | 0.00 | 64 | 1020.2 |
| 20260902071556 | 74 | 120 | 2.6 | 6.1 | 0.00 | 0.00 | 0.00 | 64 | 1020.2 |
| 20260902064555 | 72 | 120 | 4.3 | 7.0 | 0.00 | 0.00 | 0.00 | 64 | 1019.9 |
| 20260902063055 | 72 | 120 | 1.7 | 4.3 | 0.00 | 0.00 | 0.00 | 63 | 1020.0 |
| 20260902061558 | 71 | 120 | 2.6 | 4.3 | 0.00 | 0.00 | 0.00 | 63 | 1019.7 |
| 20260902060104 | 71 | 120 | 1.7 | 5.2 | 0.00 | 0.00 | 0.00 | 63 | 1019.6 |
| 20260902054556 | 71 | 120 | 1.7 | 2.6 | 0.00 | 0.00 | 0.00 | 63 | 1019.5 |
| 20260902053101 | 72 | 120 | 1.7 | 3.5 | 0.00 | 0.00 | 0.00 | 63 | 1019.5 |
| 20260902051554 | 72 | 120 | 2.6 | 4.3 | 0.00 | 0.00 | 0.00 | 63 | 1019.2 |
| 20260902050059 | 73 | 120 | 0.9 | 3.5 | 0.00 | 0.00 | 0.00 | 63 | 1019.1 |
| 20260902044557 | 73 | 120 | 1.7 | 5.2 | 0.00 | 0.00 | 0.00 | 63 | 1019.1 |
| 20260902043055 | 73 | 120 | 2.6 | 6.1 | 0.00 | 0.00 | 0.00 | 63 | 1018.9 |
| 20260902041558 | 73 | 120 | 2.6 | 7.0 | 0.00 | 0.00 | 0.00 | 63 | 1018.9 |
| 20260902034605 | 73 | 120 | 0.9 | 6.1 | 0.00 | 0.00 | 0.00 | 63 | 1019.1 |
| 20260902033102 | 74 | 120 | 1.7 | 5.2 | 0.00 | 0.00 | 0.00 | 63 | 1019.2 |
| 20260902031602 | 74 | 120 | 5.2 | 9.6 | 0.00 | 0.00 | 0.00 | 63 | 1019.1 |
| 20260902030056 | 74 | 121 | 5.2 | 9.6 | 0.00 | 0.00 | 0.00 | 63 | 1019.2 |
| 20260902024555 | 74 | 122 | 5.2 | 9.6 | 0.00 | 0.00 | 0.00 | 63 | 1019.1 |
| 20260902023052 | 74 | 122 | 4.3 | 7.8 | 0.00 | 0.00 | 0.00 | 63 | 1019.1 |
| 20260902021546 | 74 | 122 | 5.2 | 9.6 | 0.00 | 0.00 | 0.00 | 63 | 1019.1 |
| 20260902020101 | 74 | 124 | 7.0 | 11.3 | 0.00 | 0.00 | 0.00 | 63 | 1019.3 |
| 20260902014556 | 74 | 135 | 4.3 | 7.0 | 0.00 | 0.00 | 0.00 | 63 | 1019.3 |
| 20260902013052 | 74 | 135 | 5.2 | 7.8 | 0.00 | 0.00 | 0.00 | 63 | 1019.4 |
| 20260902011559 | 74 | 136 | 5.2 | 10.4 | 0.00 | 0.00 | 0.00 | 63 | 1019.7 |
| 20260902010057 | 74 | 139 | 4.3 | 7.8 | 0.00 | 0.00 | 0.00 | 63 | 1019.5 |
| 20260902004557 | 74 | 139 | 4.3 | 7.8 | 0.00 | 0.00 | 0.00 | 63 | 1019.8 |
| 20260902003104 | 74 | 141 | 2.6 | 8.7 | 0.00 | 0.00 | 0.00 | 63 | 1019.9 |
| 20260902001558 | 74 | 141 | 4.3 | 6.1 | 0.00 | 0.00 | 0.00 | 63 | 1020.1 |
| 20260902000051 | 74 | 142 | 4.3 | 6.1 | 0.00 | 0.00 | 0.00 | 63 | 1020.2 |
| 20260901234610 | 74 | 142 | 3.5 | 6.1 | 0.00 | 0.00 | 0.00 | 63 | 1020.3 |
| 20260901233101 | 75 | 142 | 2.6 | 5.2 | 0.00 | 0.00 | 0.00 | 63 | 1020.2 |
| 20260901231558 | 75 | 142 | 3.5 | 6.1 | 0.00 | 0.00 | 0.00 | 63 | 1020.2 |
| 20260901230056 | 75 | 142 | 3.5 | 6.1 | 0.00 | 0.00 | 0.00 | 63 | 1020.0 |
| 20260901224549 | 74 | 142 | 1.7 | 3.5 | 0.00 | 0.00 | 0.00 | 63 | 1020.1 |
| 20260901223058 | 73 | 0 | 0.0 | 0.0 | 0.00 | 0.00 | 0.00 | 63 | 1020.3 |
| 20260901221557 | 74 | 0 | 0.0 | 0.9 | 0.00 | 0.00 | 0.00 | 63 | 1020.4 |
| 20260901220114 | 75 | 0 | 0.0 | 0.0 | 0.00 | 0.00 | 0.00 | 64 | 1020.3 |
| 20260901214601 | 76 | 0 | 0.0 | 0.0 | 0.00 | 0.00 | 0.00 | 64 | 1020.5 |
| 20260901213057 | 77 | 0 | 0.0 | 0.9 | 0.00 | 0.00 | 0.00 | 64 | 1020.5 |
| 20260901211557 | 78 | 0 | 0.0 | 0.9 | 0.00 | 0.00 | 0.00 | 64 | 1020.4 |
| 20260901210055 | 77 | 0 | 0.9 | 5.2 | 0.00 | 0.00 | 0.00 | 64 | 1020.3 |
| 20260901204553 | 76 | 142 | 0.0 | 0.9 | 0.00 | 0.00 | 0.00 | 64 | 1019.9 |
| 20260901203103 | 77 | 0 | 0.0 | 0.0 | 0.00 | 0.00 | 0.00 | 64 | 1019.7 |
| 20260901201601 | 78 | 0 | 0.0 | 2.6 | 0.00 | 0.00 | 0.00 | 64 | 1019.5 |
| 20260901200055 | 79 | 142 | 0.0 | 0.9 | 0.00 | 0.00 | 0.00 | 64 | 1018.9 |
| 20260901194601 | 79 | 0 | 0.0 | 0.0 | 0.00 | 0.00 | 0.00 | 65 | 1018.5 |
| 20260901193102 | 80 | 142 | 0.0 | 2.6 | 0.00 | 0.00 | 0.00 | 65 | 1018.3 |
| 20260901191557 | 82 | 142 | 1.7 | 3.5 | 0.00 | 0.00 | 0.00 | 65 | 1018.1 |
| 20260901190054 | 82 | 142 | 1.7 | 2.6 | 0.00 | 0.00 | 0.00 | 65 | 1017.9 |
| 20260901184558 | 83 | 142 | 1.7 | 5.2 | 0.00 | 0.00 | 0.00 | 66 | 1017.8 |
| 20260901183058 | 84 | 142 | 3.5 | 6.1 | 0.00 | 0.00 | 0.00 | 66 | 1017.8 |
| 20260901181603 | 84 | 142 | 3.5 | 7.0 | 0.00 | 0.00 | 0.00 | 66 | 1017.8 |
| 20260901180058 | 85 | 142 | 4.3 | 7.8 | 0.00 | 0.00 | 0.00 | 66 | 1017.8 |
| 20260901174554 | 86 | 142 | 2.6 | 6.1 | 0.00 | 0.00 | 0.00 | 66 | 1017.9 |
| 20260901173051 | 87 | 142 | 4.3 | 6.1 | 0.00 | 0.00 | 0.00 | 66 | 1017.8 |
| 20260901171557 | 87 | 142 | 3.5 | 7.0 | 0.00 | 0.00 | 0.00 | 67 | 1017.9 |
| 20260901170116 | 87 | 142 | 2.6 | 7.0 | 0.00 | 0.00 | 0.00 | 67 | 1018.0 |
| 20260901164554 | 87 | 142 | 4.3 | 8.7 | 0.00 | 0.00 | 0.00 | 67 | 1018.0 |
| 20260901163051 | 86 | 142 | 6.1 | 9.6 | 0.00 | 0.00 | 0.00 | 67 | 1018.0 |
| 20260901161604 | 87 | 142 | 3.5 | 7.8 | 0.00 | 0.00 | 0.00 | 67 | 1018.1 |
| 20260901160056 | 85 | 141 | 5.2 | 10.4 | 0.00 | 0.00 | 0.00 | 67 | 1018.3 |
| 20260901154602 | 85 | 139 | 3.5 | 10.4 | 0.00 | 0.00 | 0.00 | 67 | 1018.4 |
| 20260901153053 | 85 | 135 | 4.3 | 9.6 | 0.00 | 0.00 | 0.00 | 67 | 1018.5 |
| 20260901151559 | 84 | 134 | 6.1 | 10.4 | 0.00 | 0.00 | 0.00 | 67 | 1018.6 |
| 20260901150106 | 84 | 131 | 4.3 | 10.4 | 0.00 | 0.00 | 0.00 | 67 | 1018.5 |
| 20260901144557 | 84 | 129 | 5.2 | 8.7 | 0.00 | 0.00 | 0.00 | 67 | 1018.4 |
| 20260901143100 | 84 | 129 | 4.3 | 7.8 | 0.00 | 0.00 | 0.00 | 67 | 1018.5 |
| 20260901141556 | 83 | 129 | 4.3 | 9.6 | 0.00 | 0.00 | 0.00 | 67 | 1018.6 |
| 20260901140105 | 83 | 129 | 6.1 | 8.7 | 0.00 | 0.00 | 0.00 | 67 | 1018.8 |
| 20260901134553 | 83 | 129 | 3.5 | 8.7 | 0.00 | 0.00 | 0.00 | 67 | 1018.9 |
| 20260901133050 | 83 | 129 | 3.5 | 8.7 | 0.00 | 0.00 | 0.00 | 67 | 1019.2 |
| 20260901131553 | 82 | 129 | 4.3 | 7.0 | 0.00 | 0.00 | 0.00 | 67 | 1019.1 |
| 20260901130053 | 82 | 129 | 4.3 | 8.7 | 0.00 | 0.00 | 0.00 | 66 | 1019.3 |
| 20260901124549 | 80 | 129 | 4.3 | 7.0 | 0.00 | 0.00 | 0.00 | 66 | 1019.4 |
| 20260901123108 | 78 | 129 | 4.3 | 8.7 | 0.00 | 0.00 | 0.00 | 66 | 1019.4 |